User: anonymous   Login
Location: Bay Ridge
(40.6340°N, 74.0146°W)
Time: 21:42:52
(UTC+00:00)
Language:

CZ-4C R/B - Orbit

View from above orbital plane
View from above orbital plane
View from above satellite
View from above satellite

Ground track
Ground track

The orbit data is extracted from the following two-line orbital elements,

1 36416U 10009D   20027.25106383 -.00000036 +00000-0 +35282-4 0  9993
2 36416 063.4250 223.1604 0481037 355.2416 004.4130 13.69561500494879
Epoch (UTC): 27 January 2020 06:01:31
Eccentricity: 0.0481037
inclination: 63.4250°
perigee height: 646 km
apogee height: 1356 km
right ascension of ascending node: 223.1604°
argument of perigee: 355.2416°
revolutions per day: 13.69561500
mean anomaly at epoch: 4.4130°
orbit number at epoch: 49487

The dashed part of the orbit path shows where the satellite is in the earth's shadow,  

DLR